sat.trackr.live / text

‹ back to catalog

STARLINK-11693 [DTC]

NORAD 63763 · 2025-089N

PAYLOAD ACTIVE UNKNOWN

§ Identity

Operator
Country
US
Launch date
2025-04-29
Launch site
AFETR
Launch vehicle
Mass (kg)
RCS (m²)

Purposes: comms

External: N2YO · Heavens-Above · Gunter

§ Orbital elements

Epoch: 2026-05-25T03:50:21.409728Z

Period
91.67 min
Inclination
42.9994°
Eccentricity
0.0001574
Mean motion
15.70917829 rev/d
Perigee alt
355.2 km
Apogee alt
357.3 km
Semi-major
6,734.4 km
B*
1.7569e-3
RAAN
191.1806°
Arg perigee
258.8317°
Mean anomaly
101.2374°
Rev number
6,205

§ Raw data

STARLINK-11693 [DTC]1 63763U 25089N   26145.15997002  .00232147  00000+0  17569-2 0  99982 63763  42.9994 191.1806 0001574 258.8317 101.2374 15.70917829 62051

JSON: /api/v1/satellites/63763 · /tle

For live sub-satellite position, see the globe view (requires WebGL).

§ Visibility from observer

Set your observer location to see the next 7 days of passes ≥ 10°. The values pass through the URL so the page stays shareable.

No JS? Fill the form by hand. The geolocation button needs JavaScript.